Location: Unspecified
(0.0000°N, 0.0000°E)
Time: 11:59:53
(UTC+02:00)

PROBA 2 - Pass Details

Date: 06 June 2022
Orbit: 704 x 725 km, 98.2° (Epoch: 30 June)

Event Time Altitude Azimuth Distance (km) Brightness Sun altitude
Rises 20:54:25 0° 337° (NNW) 3,079 ? -12.8°
Reaches altitude 10° 20:57:48 10° 311° (NW) 2,166 ? -13.6°
Maximum altitude 21:00:04 13° 282° (WNW) 1,943 ? -14.1°
Drops below altitude 10° 21:02:21 10° 253° (WSW) 2,175 ? -14.6°
Sets 21:05:47 0° 227° (SW) 3,101 ? -15.4°
